Location: Middlebury
(44.0153°N, 73.1678°W)
Time: 20:02:25
(UTC-04:00)

DIWATA 2B (PO-101) - Pass Details

Date: 21 June 2024
Orbit: 575 x 586 km, 98.1° (Epoch: 23 July)

Event Time Altitude Azimuth Distance (km) Brightness Sun altitude
Rises 03:04:16 0° 119° (ESE) 2,780 ? -16.3°
Reaches altitude 10° 03:07:17 10° 94° (E) 1,888 ? -16.0°
Maximum altitude 03:09:25 14° 62° (ENE) 1,645 ? -15.8°
Drops below altitude 10° 03:11:33 10° 30° (NNE) 1,897 ? -15.6°
Sets 03:14:36 0° 6° (N) 2,804 ? -15.3°
